Weather History for Pampa, TX

Change the Weather History Date:

Sunday, March 31, 2013

  Actual Average Record
Temperature  
Mean Temperature 56 °F -  
Max Temperature 65 °F 62 °F 87 °F (1966)
Min Temperature 46 °F 34 °F 13 °F (1987)
Degree Days  
Heating Degree Days 10    
Growing Degree Days 6 (Base 50)    
Moisture  
Dew Point 37 °F    
Average Humidity 58    
Maximum Humidity 92    
Minimum Humidity 22    
Precipitation  
Precipitation 0.00 in - - ()
Sea Level Pressure  
Sea Level Pressure 30.06 in    
Wind  
Wind Speed 13 mph (NE)    
Max Wind Speed 31 mph    
Max Gust Speed 43 mph    
Visibility 10 miles    
Events Rain , Thunderstorm    
Averages and records for this station are not official NWS values.
T = Trace of Precipitation, MM = Missing Value Source: NWS Daily Summary

Daily Weather History Graph

Daily Weather History Graph

Search for Another Location

Airport:

Trip Planner

Search our weather history database for the weather conditions in past years. The results will help you decide how hot, cold, wet, or windy it might be!

Date:

Astronomy

Mar. 31, 2013 Rise Set
Actual Time 7:31 AM CDT 8:05 PM CDT
Civil Twilight 7:05 AM CDT 8:30 PM CDT
Nautical Twilight 6:35 AM CDT 9:01 PM CDT
Astronomical Twilight 6:04 AM CDT 9:31 PM CDT
Moon 12:04 AM CDT (3/31) 10:29 AM CDT (3/31)
Length of Visible Light 13h 24m
Length of Day
12h 33m
Waning Gibbous, 77% of the Moon is Illuminated
Mar 31
Waning Gibbous
Apr 2
Last Quarter
Apr 10
New
Apr 18
First Quarter
Apr 25
Full

Hourly Weather History & Observations

Time (CDT) Temp. Windchill Dew Point Humidity Pressure Visibility Wind Dir Wind Speed Gust Speed Precip Events Conditions
12:15 AM 58.1 °F - 41.5 °F 54% 29.96 in 10.0 mi East 3.5 mph - N/A   Clear
12:35 AM 53.8 °F - 41.4 °F 63% 29.97 in 10.0 mi East 6.9 mph - N/A   Clear
12:55 AM 55.4 °F - 42.4 °F 62% 29.98 in 10.0 mi NNE 9.2 mph - N/A   Clear
1:15 AM 55.6 °F - 35.1 °F 46% 30.00 in 10.0 mi NE 10.4 mph - N/A   Clear
1:35 AM 55.4 °F - 35.6 °F 47% 30.01 in 10.0 mi NE 10.4 mph - N/A   Scattered Clouds
1:55 AM 57.2 °F - 37.9 °F 49% 30.05 in 10.0 mi NNE 24.2 mph 29.9 mph N/A Thunderstorm Thunderstorm
2:15 AM 52.5 °F - 43.7 °F 72% 30.06 in 7.0 mi NNE 31.1 mph 42.6 mph N/A Rain , Thunderstorm Light Thunderstorms and Rain
2:35 AM 48.2 °F - 45.5 °F 90% 30.05 in 5.0 mi NNE 31.1 mph 40.3 mph N/A Rain , Thunderstorm Light Thunderstorms and Rain
2:55 AM 48.2 °F - 44.8 °F 88% 30.08 in 10.0 mi NNE 26.5 mph 36.8 mph N/A Rain , Thunderstorm Light Thunderstorms and Rain
3:15 AM 47.5 °F - 44.8 °F 90% 30.07 in 5.0 mi NE 25.3 mph 31.1 mph N/A Rain Light Rain
3:35 AM 47.5 °F - 44.4 °F 89% 30.07 in 10.0 mi NE 24.2 mph 33.4 mph N/A   Overcast
3:55 AM 47.5 °F - 44.6 °F 90% 30.07 in 10.0 mi NE 21.9 mph 28.8 mph N/A   Overcast
4:15 AM 47.5 °F - 44.4 °F 89% 30.06 in 10.0 mi NE 23.0 mph 29.9 mph N/A Thunderstorm Unknown
4:35 AM 47.5 °F - 44.1 °F 88% 30.06 in 10.0 mi NNE 20.7 mph 28.8 mph N/A Thunderstorm Thunderstorm
4:55 AM 47.5 °F - 44.1 °F 88% 30.07 in 10.0 mi NNE 21.9 mph 27.6 mph N/A Rain , Thunderstorm Light Thunderstorms and Rain
5:15 AM 47.3 °F - 44.4 °F 90% 30.08 in 10.0 mi NE 17.3 mph - N/A Rain , Thunderstorm Light Thunderstorms and Rain
5:35 AM 47.3 °F - 43.9 °F 88% 30.03 in 7.0 mi NE 20.7 mph - N/A Rain , Thunderstorm Light Thunderstorms and Rain
5:55 AM 46.8 °F - 43.7 °F 89% 30.05 in 10.0 mi NE 15.0 mph 27.6 mph N/A Thunderstorm Thunderstorm
6:15 AM 47.5 °F - 43.9 °F 87% 30.06 in 10.0 mi NNE 11.5 mph - N/A Thunderstorm Thunderstorm
6:35 AM 47.7 °F - 43.7 °F 86% 30.08 in 10.0 mi NE 8.1 mph - N/A   Overcast
6:55 AM 47.3 °F - 44.1 °F 88% 30.09 in 10.0 mi NNE 10.4 mph - N/A   Mostly Cloudy
7:15 AM 46.9 °F - 43.9 °F 89% 30.07 in 10.0 mi NE 16.1 mph - N/A Rain Light Rain
7:35 AM 46.4 °F 40.4 °F 43.7 °F 90% 30.08 in 10.0 mi NE 13.8 mph - N/A   Mostly Cloudy
7:55 AM 46.4 °F 41.1 °F 43.9 °F 91% 30.10 in 10.0 mi NNE 11.5 mph - N/A   Overcast
8:15 AM 46.4 °F 40.1 °F 43.9 °F 91% 30.10 in 10.0 mi NE 15.0 mph - N/A   Mostly Cloudy
8:35 AM 46.9 °F - 44.6 °F 92% 30.11 in 10.0 mi NNE 8.1 mph - N/A   Scattered Clouds
8:55 AM 47.5 °F - 45.0 °F 91% 30.11 in 10.0 mi NNE 16.1 mph - N/A   Scattered Clouds
9:15 AM 48.6 °F - 44.8 °F 87% 30.11 in 10.0 mi NNE 20.7 mph 26.5 mph N/A   Clear
9:35 AM 49.1 °F - 45.3 °F 87% 30.12 in 10.0 mi NNE 17.3 mph - N/A   Scattered Clouds
9:55 AM 49.3 °F - 45.0 °F 85% 30.11 in 10.0 mi NNE 19.6 mph 24.2 mph N/A   Scattered Clouds
10:15 AM 50.9 °F - 43.9 °F 77% 30.12 in 10.0 mi NE 21.9 mph - N/A   Scattered Clouds
10:35 AM 51.8 °F - 44.1 °F 75% 30.11 in 10.0 mi NNE 19.6 mph - N/A   Scattered Clouds
10:55 AM 52.7 °F - 42.3 °F 68% 30.11 in 10.0 mi NNE 18.4 mph - N/A   Clear
11:15 AM 54.0 °F - 43.2 °F 67% 30.12 in 10.0 mi NNE 13.8 mph - N/A   Clear
11:35 AM 54.5 °F - 41.7 °F 62% 30.12 in 10.0 mi North 12.7 mph 21.9 mph N/A   Clear
11:55 AM 55.2 °F - 39.2 °F 55% 30.12 in 10.0 mi NNE 17.3 mph - N/A   Clear
12:15 PM 56.3 °F - 38.8 °F 52% 30.12 in 10.0 mi NNE 16.1 mph - N/A   Clear
12:35 PM 58.6 °F - 38.5 °F 47% 30.11 in 10.0 mi NNE 11.5 mph 17.3 mph N/A   Clear
12:55 PM 59.2 °F - 35.6 °F 41% 30.11 in 10.0 mi NNE 13.8 mph - N/A   Clear
1:15 PM 59.9 °F - 33.8 °F 38% 30.11 in 10.0 mi NNE 11.5 mph 16.1 mph N/A   Clear
1:35 PM 61.0 °F - 32.9 °F 35% 30.12 in 10.0 mi NE 10.4 mph 16.1 mph N/A   Clear
1:55 PM 61.0 °F - 32.0 °F 34% 30.12 in 10.0 mi NE 8.1 mph - N/A   Clear
2:15 PM 61.9 °F - 31.1 °F 31% 30.11 in 10.0 mi NE 4.6 mph - N/A   Clear
2:35 PM 62.6 °F - 27.3 °F 26% 30.10 in 10.0 mi North 5.8 mph - N/A   Clear
2:55 PM 63.5 °F - 29.7 °F 28% 30.10 in 10.0 mi NNE 6.9 mph - N/A   Clear
3:15 PM 63.3 °F - 28.9 °F 27% 30.08 in 10.0 mi Calm Calm - N/A   Clear
3:35 PM 63.1 °F - 25.7 °F 24% 30.08 in 10.0 mi NE 4.6 mph - N/A   Clear
3:55 PM 63.9 °F - 25.7 °F 24% 30.07 in 10.0 mi Calm Calm - N/A   Clear
4:15 PM 63.9 °F - 24.8 °F 23% 30.06 in 10.0 mi Calm Calm - N/A   Clear
4:35 PM 64.6 °F - 25.7 °F 23% 30.05 in 10.0 mi WNW 3.5 mph - N/A   Clear
4:55 PM 64.6 °F - 24.6 °F 22% 30.04 in 10.0 mi WNW 4.6 mph - N/A   Clear
5:15 PM 65.3 °F - 24.8 °F 22% 30.03 in 10.0 mi NNE 4.6 mph - N/A   Clear
5:35 PM 64.9 °F - 24.8 °F 22% 30.03 in 10.0 mi North 3.5 mph - N/A   Clear
5:55 PM 64.9 °F - 24.8 °F 22% 30.02 in 10.0 mi Calm Calm - N/A   Clear
6:15 PM 65.1 °F - 25.2 °F 22% 30.01 in 10.0 mi Calm Calm - N/A   Clear
6:35 PM 65.5 °F - 26.1 °F 23% 30.01 in 10.0 mi SSW 6.9 mph - N/A   Clear
6:55 PM 64.8 °F - 25.7 °F 23% 30.01 in 10.0 mi SSW 3.5 mph - N/A   Clear
7:15 PM 63.9 °F - 26.6 °F 24% 30.01 in 10.0 mi SSW 4.6 mph - N/A   Clear
7:35 PM 62.1 °F - 28.6 °F 28% 30.01 in 10.0 mi SSW 4.6 mph - N/A   Clear
8:15 PM 57.4 °F - 29.1 °F 34% 30.01 in 10.0 mi SSW 5.8 mph - N/A   Clear
8:35 PM 56.3 °F - 28.4 °F 34% 30.01 in 10.0 mi South 5.8 mph - N/A   Clear
8:55 PM 54.5 °F - 28.9 °F 38% 30.01 in 10.0 mi South 6.9 mph - N/A   Clear
9:15 PM 54.0 °F - 30.4 °F 41% 30.02 in 10.0 mi South 8.1 mph - N/A   Clear
9:35 PM 51.1 °F - 32.4 °F 49% 30.02 in 10.0 mi SSE 6.9 mph - N/A   Clear
10:15 PM 49.1 °F - 34.7 °F 58% 30.01 in 10.0 mi SSE 9.2 mph - N/A   Clear
10:35 PM 48.0 °F - 35.6 °F 62% 30.02 in 10.0 mi South 9.2 mph - N/A   Clear
10:55 PM 46.6 °F - 36.1 °F 67% 30.02 in 10.0 mi South 10.4 mph - N/A   Clear
11:15 PM 47.3 °F - 36.7 °F 67% 30.01 in 10.0 mi South 11.5 mph - N/A   Clear
11:35 PM 48.6 °F - 36.9 °F 64% 30.01 in 10.0 mi South 10.4 mph - N/A   Clear
11:55 PM 49.5 °F - 36.9 °F 62% 30.00 in 10.0 mi South 10.4 mph - N/A   Clear